Location: Sangrey
(48.2845°N, 109.8206°W)
Time: 22:30:45
(UTC+00:00)

Envisat - Pass Details

Date: 24 January 2022
Orbit: 764 x 765 km, 98.2° (Epoch: 21 May)

Event Time Altitude Azimuth Distance (km) Brightness Sun altitude
Rises 12:11:17 0° 15° (NNE) 3,242 6.4 -27.4°
Reaches altitude 10° 12:13:36 10° 18° (NNE) 2,312 5.7 -27.0°
Maximum altitude 12:18:42 72° 103° (ESE) 806 3.1 -26.2°
Drops below altitude 10° 12:23:45 10° 188° (S) 2,296 5.4 -25.3°
Sets 12:26:03 0° 190° (S) 3,218 6.1 -24.9°
